Weather History for Spirit of St Louis, MO

Change the Weather History Date:

Wednesday, July 24, 2013

  Actual Average Record
Temperature  
Mean Temperature 72 °F -  
Max Temperature 81 °F 86 °F 106 °F (2012)
Min Temperature 63 °F 65 °F 55 °F (2000)
Cooling Degree Days 7    
Growing Degree Days 22 (Base 50)    
Moisture  
Dew Point 57 °F    
Average Humidity 59    
Maximum Humidity 81    
Minimum Humidity 39    
Precipitation  
Precipitation 0.00 in - - ()
Sea Level Pressure  
Sea Level Pressure 29.97 in    
Wind  
Wind Speed 7 mph (NE)    
Max Wind Speed 12 mph    
Max Gust Speed 17 mph    
Visibility 10 miles    
Events      
Averages and records for this station are not official NWS values.
T = Trace of Precipitation, MM = Missing Value Source: NWS Daily Summary

Daily Weather History Graph

Daily Weather History Graph

Search for Another Location

Airport:

Trip Planner

Search our weather history database for the weather conditions in past years. The results will help you decide how hot, cold, wet, or windy it might be!

Date:

Astronomy

Jul. 24, 2013 Rise Set
Actual Time 5:57 AM CDT 8:20 PM CDT
Civil Twilight 5:27 AM CDT 8:50 PM CDT
Nautical Twilight 4:49 AM CDT 9:27 PM CDT
Astronomical Twilight 4:08 AM CDT 10:08 PM CDT
Moon 9:28 PM CDT (7/24) 8:15 AM CDT (7/24)
Length of Visible Light 15h 23m
Length of Day
14h 22m
Waning Gibbous, 94% of the Moon is Illuminated
Jul 24
Waning Gibbous
Jul 29
Last Quarter
Aug 6
New
Aug 14
First Quarter
Aug 20
Full

Hourly Weather History & Observations

Time (CDT) Temp. Heat Index Dew Point Humidity Pressure Visibility Wind Dir Wind Speed Gust Speed Precip Events Conditions
12:54 AM 73.0 °F - 62.1 °F 68% 29.89 in 10.0 mi ENE 9.2 mph - N/A   Mostly Cloudy
1:54 AM 72.0 °F - 62.1 °F 71% 29.90 in 10.0 mi NE 4.6 mph - N/A   Mostly Cloudy
2:54 AM 71.1 °F - 62.1 °F 73% 29.90 in 10.0 mi NNE 5.8 mph - N/A   Clear
3:54 AM 70.0 °F - 61.0 °F 73% 29.89 in 10.0 mi NE 4.6 mph - N/A   Partly Cloudy
4:54 AM 69.1 °F - 61.0 °F 75% 29.91 in 10.0 mi NE 6.9 mph - N/A   Clear
5:54 AM 68.0 °F - 62.1 °F 81% 29.93 in 10.0 mi ENE 9.2 mph - N/A   Partly Cloudy
6:54 AM 66.9 °F - 60.1 °F 79% 29.94 in 10.0 mi NE 9.2 mph - N/A   Scattered Clouds
7:54 AM 68.0 °F - 57.0 °F 68% 29.95 in 10.0 mi NE 11.5 mph - N/A   Scattered Clouds
8:54 AM 70.0 °F - 55.9 °F 61% 29.96 in 10.0 mi ENE 9.2 mph - N/A   Scattered Clouds
9:54 AM 71.1 °F - 52.0 °F 51% 29.99 in 10.0 mi ENE 5.8 mph - N/A   Partly Cloudy
10:54 AM 73.9 °F - 54.0 °F 50% 29.99 in 10.0 mi East 8.1 mph - N/A   Clear
11:54 AM 75.9 °F - 53.1 °F 45% 29.99 in 10.0 mi ENE 10.4 mph - N/A   Clear
12:54 PM 79.0 °F - 54.0 °F 42% 30.00 in 10.0 mi NNE 10.4 mph - N/A   Clear
1:54 PM 79.0 °F - 53.1 °F 40% 29.99 in 10.0 mi North 8.1 mph 17.3 mph N/A   Clear
2:54 PM 80.1 °F 80.0 °F 54.0 °F 40% 29.98 in 10.0 mi NNE 8.1 mph 17.3 mph N/A   Partly Cloudy
3:54 PM 80.1 °F 79.9 °F 53.1 °F 39% 29.98 in 10.0 mi Calm Calm - N/A   Partly Cloudy
4:54 PM 80.1 °F 79.9 °F 53.1 °F 39% 29.98 in 10.0 mi North 4.6 mph - N/A   Clear
5:54 PM 79.0 °F - 53.1 °F 40% 29.98 in 10.0 mi NNE 9.2 mph - N/A   Clear
6:54 PM 78.1 °F - 54.0 °F 43% 29.98 in 10.0 mi NNE 8.1 mph - N/A   Clear
7:54 PM 75.0 °F - 55.0 °F 50% 29.99 in 10.0 mi NNE 6.9 mph - N/A   Clear
8:54 PM 72.0 °F - 55.0 °F 55% 29.99 in 10.0 mi NNE 4.6 mph - N/A   Clear
9:54 PM 66.0 °F - 57.0 °F 73% 30.01 in 10.0 mi Calm Calm - N/A   Clear
10:54 PM 64.0 °F - 57.0 °F 78% 30.02 in 10.0 mi Calm Calm - N/A   Clear
11:54 PM 63.0 °F - 57.0 °F 81% 30.02 in 10.0 mi Calm Calm - N/A   Clear